Regional Weather Roundup
Issued by NWS Mobile, AL

Home | Current Version | Previous Version | Text Only | Print | Product List | Glossary On
Versions: 1 2 3 4 5 6 7 8 9 10 11 12 13 14 15 16 17 18 19 20 21 22 23 24 25 26 27
000
ASUS44 KMOB 231912
RWRMOB
REGIONAL WEATHER ROUNDUP
NATIONAL WEATHER SERVICE MOBILE AL
200 PM CDT MON OCT 23 2017

NOTE: "FAIR" INDICATES FEW OR NO CLOUDS BELOW 12,000 FEET WITH NO
      SIGNIFICANT WEATHER AND/OR OBSTRUCTIONS TO VISIBILITY.

  * THESE STATIONS ARE PART OF THE UNIVERSITY OF SOUTH ALABAMA
    MESONET AND ARE NOT UNDER NWS OR FAA QUALITY CONTROL.

ALZ061>064-232000-
COASTAL ALABAMA

CITY           SKY/WX    TMP DP  RH WIND       PRES   REMARKS
MOBILE REG APT MOSUNNY   73  52  47 NW12G21   29.99F
BROOKLEY FIELD SUNNY     74  51  44 W16G22    29.99F
USA CAMPUS*    NOT AVBL
DOG RIVER*     NOT AVBL


CITY           SKY/WX    TMP DP  RH WIND       PRES   REMARKS
GULF SHORES    SUNNY     73  55  51 NW15G26   29.96F

$$

ALZ051>060-232000-
INTERIOR SOUTHWEST AND SOUTH CENTRAL ALABAMA

CITY           SKY/WX    TMP DP  RH WIND       PRES   REMARKS
GREENVILLE     NOT AVBL
EVERGREEN      SUNNY     73  53  49 NW9G17    29.97S
ATMORE*          N/A    N/A N/A N/A W12         N/A
ANDALUSIA/OPP  SUNNY     76  54  46 NW14G21   29.94F
ANDALUSIA*       N/A     72  55  56 NW12      29.95F
FLORALA APT    SUNNY     74  54  49 NW9       29.96S
FLORALA*         N/A     73  54  49 SW7       30.60F

$$

FLZ001>006-232000-
WESTERN FLORIDA PANHANDLE

CITY           SKY/WX    TMP DP  RH WIND       PRES   REMARKS
PENSACOLA      SUNNY     76  53  44 NW17      29.94F
NAS PENSACOLA  MOSUNNY   75  52  44 NW12G17   29.94F
MILTON         MOSUNNY   73  55  53 NW13G21   29.95F
WHTNG S FIELD  MOSUNNY   76  51  41 NW15G22   29.95F


CITY           SKY/WX    TMP DP  RH WIND       PRES   REMARKS
JAY*           NOT AVBL
DUKE FIELD     MOSUNNY   75  54  47 NW10      29.92F
CRESTVIEW      SUNNY     76  53  44 N12       29.95S
VALPARAISO     MOSUNNY   77  53  42 N14G20    29.92F
DESTIN         SUNNY     80  55  42 VRB7      29.92F

$$

MSZ076-079-232000-
INTERIOR SOUTHEAST MISSISSIPPI

CITY           SKY/WX    TMP DP  RH WIND       PRES   REMARKS
LEAKESVILLE*   NOT AVBL
AGRICOLA*        N/A     70  50  49 NW10      29.99S

$$

MARINE OBSERVATIONS

STATION/POSITION TIME  TEMP    WIND        PRES    WAVE
                       AIR SEA DIR/SP/G            HT/PER
                 (UTC) (F)     (DEG/KT/KT) (MB)    (FT/S)
PASCAGOULA       1836   72     320/ 11/ 15 1015.1F
PETIT BOIS ISLND 1836   71     320/ 10/ 13 1016.2F
GRAND BAY        1745   70     320/ 10     1017.0S
KATRINA CUT      1830   69     320/ 14     1015.2F
CEDAR POINT      1830   70     330/ 11     1015.2F
E DAUPHIN ISLAND 1800   69     280/ 12/ 16 1015.2F
MIDDLE BAY LIGHT 1830   72     310/ 14     1014.9F
USCG MOBILE BAY  1836   71 75  320/ 14/ 19 1015.1F
STATE DOCKS      1836   76 74              1015.0F
MEAHER PARK      1830   71     300/ 11     1015.2F
WEEKS BAY        1745   71                 1015.0F
FORT MORGAN      1836   70     310/ 12/ 17   N/A
12 S ORANGE BCH  1750      78  270/ 17/ 21 1014.4F   4/ 8
PENSACOLA BAY    1836   74 76              1014.2F
64 S DAUPHIN ISL 1850   70 81  310/ 17/ 23 1015.5F   5/ 6
67 S FORT MORGAN 1830   72        CALM     1015.2F

$$

SELECTED LOCATIONS ACROSS THE REGION

CITY           SKY/WX    TMP DP  RH WIND       PRES   REMARKS
NEW ORLEANS    MOSUNNY   72  50  45 N15       30.03F
GULFPORT       SUNNY     75  52  44 NW14      29.99F
PASCAGOULA AP  SUNNY     74  51  44 NW10G18   29.98F
PASCAGOULA*    NOT AVBL
HATTIESBURG    SUNNY     70  50  49 NW13G24   30.04S
LAUREL         SUNNY     70  47  43 NW10G18   30.04F
MERIDIAN       SUNNY     68  52  56 NW15      30.01F
JACKSON        SUNNY     72  44  36 W8        30.05F
MONTGOMERY     PTSUNNY   73  52  47 W14G24    29.95S
TROY           MOSUNNY   71  55  56 NW12      29.95S
ASHFORD*         N/A     72  55  56 NW12      29.95F
DOTHAN         MOSUNNY   76  58  53 NW17      29.95S
PANAMA CITY    SUNNY     78  60  53 NW14      29.90F

$$





USA.gov is the U.S. government's official web portal to all federal, state and local government web resources and services.